Overview Statistics Trail Chart Weather Telemetry Raw packets
 

This is the latest recevied weather packets stored in our database for station/object KV9E. If no packets are shown the sender has not sent any weather packets the latest 10 day(s).

<< 22 23 24 25 26 27 28 >>
Time Temp. Humidity Pressure Rain* Wind** Luminosity Snow
1788463385 34.44° C 51% 1016.9 hPa 0 mm - 544 W/m² -
1788463081 33.89° C 50% 1017.1 hPa 0 mm - 548 W/m² -
1788462776 34.44° C 53% 1017.1 hPa 0 mm - 524 W/m² -
1788462477 35° C 52% 1017.1 hPa 0 mm - 531 W/m² -
1788462171 35° C 49% 1017.1 hPa 0 mm - 557 W/m² -
1788461865 33.89° C 52% 1017.3 hPa 0 mm - 576 W/m² -
1788461565 33.89° C 51% 1017.2 hPa 0 mm - 578 W/m² -
1788461262 34.44° C 53% 1017.3 hPa 0 mm - 582 W/m² -
1788460958 35° C 53% 1017.3 hPa 0 mm - 585 W/m² -
1788460652 34.44° C 53% 1017.4 hPa 0 mm - 591 W/m² -
1788460347 33.89° C 54% 1017.6 hPa 0 mm - 581 W/m² -
1788460046 33.33° C 55% 1017.4 hPa 0 mm - 584 W/m² -
1788459741 32.22° C 56% 1017.5 hPa 0 mm - 590 W/m² -
1788459439 32.78° C 55% 1017.8 hPa 0 mm - 605 W/m² -
1788459129 31.67° C 58% 1018 hPa 0 mm - 595 W/m² -
1788458824 31.67° C 59% 1017.9 hPa 0 mm - 103 W/m² -
1788458517 32.78° C 57% 1017.9 hPa 0 mm - 113 W/m² -
1788458217 32.78° C 59% 1018 hPa 0 mm - 619 W/m² -
1788457911 32.22° C 57% 1017.8 hPa 0 mm - 602 W/m² -
1788457606 32.22° C 58% 1017.9 hPa 0 mm - 604 W/m² -
1788457300 32.22° C 58% 1018.2 hPa 0 mm - 629 W/m² -
1788456995 32.22° C 60% 1018.3 hPa 0 mm - 619 W/m² -
1788456691 31.11° C 61% 1018.2 hPa 0 mm - 626 W/m² -
1788456406 31.11° C 62% 1018.3 hPa 0 mm - 556 W/m² -
1788456081 31.67° C 60% 1018.5 hPa 0 mm - 145 W/m² -

* Rain latest hour (hover to see other rain measurements)
** Current wind speed in m/s (hover to see current wind gust speed)